JAL917 RJTT-ROAH

Flight info

Callsign JAL917
Flight time 2h 17m
Altitude 36000
Route LAXAS Y56 TOHME Y54 KOHWA Y12 AYANO Y128 LAXEL Y52 TONAR Y525 IHEYA
Aircraft A359/H-SDE2E3GHIJ1J3J4J5LM1ORWXYZ/LB1D1

Departure

Time 2026-04-30 05:19
Airport Tokyo Haneda International Airport (RJTT)

Arrival

Time 2026-04-30 07:37
Airport Naha International Airport (ROAH)
Time Latitude Longitude Altitude Speed Heading
2026-04-30 04:54 35.54531 139.78455 29 ft 0 kts 78°
2026-04-30 05:03 35.54530 139.78453 29 ft 1 kts 78°
2026-04-30 05:04 35.54527 139.78432 29 ft 3 kts 77°
2026-04-30 05:04 35.54523 139.78408 29 ft 3 kts 77°
2026-04-30 05:04 35.54519 139.78388 29 ft 3 kts 60°
2026-04-30 05:04 35.54510 139.78373 29 ft 3 kts 30°
2026-04-30 05:05 35.54497 139.78366 30 ft 4 kts 360°
2026-04-30 05:05 35.54481 139.78368 29 ft 4 kts 335°
2026-04-30 05:05 35.54474 139.78372 30 ft 1 kts 329°
2026-04-30 05:08 35.54475 139.78370 30 ft 2 kts 329°
2026-04-30 05:08 35.54510 139.78345 30 ft 9 kts 329°
2026-04-30 05:09 35.54570 139.78303 30 ft 9 kts 330°
2026-04-30 05:09 35.54595 139.78253 29 ft 8 kts 268°
2026-04-30 05:09 35.54554 139.78207 28 ft 10 kts 184°
2026-04-30 05:09 35.54480 139.78240 27 ft 13 kts 150°
2026-04-30 05:10 35.54395 139.78300 27 ft 15 kts 150°
2026-04-30 05:10 35.54299 139.78368 28 ft 17 kts 150°
2026-04-30 05:10 35.54192 139.78444 28 ft 19 kts 150°
2026-04-30 05:10 35.54068 139.78530 27 ft 21 kts 150°
2026-04-30 05:11 35.53934 139.78626 27 ft 23 kts 150°
2026-04-30 05:11 35.53810 139.78714 28 ft 16 kts 149°
2026-04-30 05:11 35.53721 139.78790 32 ft 17 kts 141°
2026-04-30 05:11 35.53619 139.78898 26 ft 21 kts 138°
2026-04-30 05:12 35.53504 139.79017 27 ft 22 kts 140°
2026-04-30 05:12 35.53419 139.79106 27 ft 12 kts 139°
2026-04-30 05:12 35.53375 139.79197 27 ft 12 kts 107°
2026-04-30 05:12 35.53390 139.79292 26 ft 13 kts 60°
2026-04-30 05:13 35.53439 139.79395 26 ft 16 kts 59°
2026-04-30 05:13 35.53499 139.79523 29 ft 17 kts 60°
2026-04-30 05:13 35.53565 139.79663 26 ft 21 kts 60°
2026-04-30 05:13 35.53641 139.79823 27 ft 21 kts 60°
2026-04-30 05:14 35.53694 139.79934 27 ft 10 kts 60°
2026-04-30 05:14 35.53703 139.80011 27 ft 10 kts 118°
2026-04-30 05:14 35.53643 139.80069 29 ft 11 kts 150°
2026-04-30 05:14 35.53567 139.80123 33 ft 16 kts 150°
2026-04-30 05:15 35.53449 139.80207 38 ft 21 kts 150°
2026-04-30 05:15 35.53327 139.80294 43 ft 20 kts 150°
2026-04-30 05:15 35.53209 139.80378 48 ft 19 kts 149°
2026-04-30 05:15 35.53096 139.80458 49 ft 18 kts 150°
2026-04-30 05:16 35.53018 139.80513 49 ft 10 kts 150°
2026-04-30 05:16 35.52947 139.80509 47 ft 12 kts 213°
2026-04-30 05:16 35.52881 139.80437 48 ft 14 kts 223°
2026-04-30 05:16 35.52806 139.80352 48 ft 16 kts 223°
2026-04-30 05:17 35.52720 139.80255 49 ft 17 kts 222°
2026-04-30 05:17 35.52661 139.80210 51 ft 8 kts 183°
2026-04-30 05:17 35.52612 139.80253 52 ft 10 kts 133°
2026-04-30 05:17 35.52557 139.80324 56 ft 14 kts 133°
2026-04-30 05:18 35.52501 139.80400 58 ft 6 kts 133°
2026-04-30 05:18 35.52490 139.80435 59 ft 3 kts 84°
2026-04-30 05:18 35.52506 139.80464 59 ft 5 kts 49°
2026-04-30 05:18 35.52556 139.80521 59 ft 20 kts 43°
2026-04-30 05:19 35.52804 139.80799 49 ft 86 kts 42°
2026-04-30 05:19 35.53429 139.81504 56 ft 156 kts 43°
2026-04-30 05:19 35.54243 139.82448 814 ft 156 kts 43°
2026-04-30 05:19 35.54770 139.83582 1729 ft 153 kts 78°
2026-04-30 05:20 35.54681 139.84870 2274 ft 154 kts 105°
2026-04-30 05:20 35.54299 139.86123 2702 ft 162 kts 111°
2026-04-30 05:20 35.53815 139.87453 2984 ft 179 kts 113°
2026-04-30 05:20 35.52985 139.88681 3191 ft 205 kts 144°
2026-04-30 05:21 35.51552 139.89219 3441 ft 232 kts 177°
2026-04-30 05:21 35.49880 139.88954 3815 ft 251 kts 191°
2026-04-30 05:21 35.48146 139.88450 4356 ft 260 kts 192°
2026-04-30 05:21 35.46374 139.87921 4993 ft 265 kts 192°
2026-04-30 05:22 35.44571 139.87399 5659 ft 268 kts 192°
2026-04-30 05:22 35.42748 139.86863 6337 ft 271 kts 196°
2026-04-30 05:22 35.41563 139.86275 6770 ft 273 kts 208°
2026-04-30 05:22 35.39848 139.84476 7508 ft 276 kts 231°
2026-04-30 05:23 35.38661 139.82599 8177 ft 278 kts 234°
2026-04-30 05:23 35.37508 139.80697 8867 ft 279 kts 235°
2026-04-30 05:23 35.36354 139.78786 9595 ft 277 kts 235°
2026-04-30 05:23 35.35207 139.76884 10234 ft 281 kts 234°
2026-04-30 05:24 35.34015 139.74912 10549 ft 295 kts 234°
2026-04-30 05:24 35.32763 139.72840 10829 ft 309 kts 234°
2026-04-30 05:24 35.31455 139.70677 11125 ft 322 kts 234°
2026-04-30 05:24 35.30095 139.68432 11388 ft 334 kts 234°
2026-04-30 05:25 35.28690 139.66116 11799 ft 341 kts 234°
2026-04-30 05:25 35.27269 139.63775 12302 ft 344 kts 234°
2026-04-30 05:25 35.25833 139.61413 12815 ft 347 kts 234°
2026-04-30 05:25 35.24398 139.59053 13401 ft 346 kts 234°
2026-04-30 05:26 35.23037 139.56818 13953 ft 346 kts 234°
2026-04-30 05:26 35.21616 139.54443 14480 ft 346 kts 237°
2026-04-30 05:26 35.20476 139.51870 15049 ft 343 kts 249°
2026-04-30 05:26 35.19691 139.49123 15592 ft 343 kts 253°
2026-04-30 05:27 35.19059 139.46306 16113 ft 343 kts 256°
2026-04-30 05:27 35.18520 139.43464 16618 ft 343 kts 257°
2026-04-30 05:27 35.18018 139.40615 17123 ft 343 kts 258°
2026-04-30 05:27 35.17520 139.37760 17626 ft 343 kts 258°
2026-04-30 05:28 35.17019 139.34915 18136 ft 342 kts 258°
2026-04-30 05:28 35.16505 139.32085 18582 ft 342 kts 257°
2026-04-30 05:28 35.15977 139.29241 18965 ft 344 kts 257°
2026-04-30 05:28 35.15452 139.26378 19325 ft 346 kts 257°
2026-04-30 05:29 35.15090 139.24441 19569 ft 348 kts 257°
2026-04-30 05:29 35.14549 139.21581 19946 ft 350 kts 257°
2026-04-30 05:29 35.14000 139.18679 20323 ft 351 kts 257°
2026-04-30 05:29 35.13448 139.15762 20716 ft 353 kts 257°
2026-04-30 05:30 35.12896 139.12839 21088 ft 354 kts 257°
2026-04-30 05:30 35.12339 139.09896 21418 ft 356 kts 257°
2026-04-30 05:30 35.11780 139.06940 21661 ft 360 kts 257°
2026-04-30 05:30 35.11214 139.03955 21978 ft 361 kts 257°
2026-04-30 05:31 35.10646 139.00970 22359 ft 361 kts 257°
2026-04-30 05:31 35.10077 138.97971 22664 ft 363 kts 257°
2026-04-30 05:31 35.09505 138.94963 22981 ft 364 kts 257°
2026-04-30 05:31 35.08928 138.91940 23246 ft 366 kts 257°
2026-04-30 05:32 35.08350 138.88914 23527 ft 367 kts 257°
2026-04-30 05:32 35.07767 138.85871 23812 ft 368 kts 257°
2026-04-30 05:32 35.07188 138.82847 24065 ft 370 kts 257°
2026-04-30 05:32 35.06601 138.79784 24341 ft 372 kts 257°
2026-04-30 05:33 35.06010 138.76708 24623 ft 372 kts 257°
2026-04-30 05:33 35.05417 138.73624 24883 ft 373 kts 257°
2026-04-30 05:33 35.04820 138.70528 25132 ft 375 kts 257°
2026-04-30 05:33 35.04214 138.67383 25386 ft 376 kts 257°
2026-04-30 05:34 35.03614 138.64275 25659 ft 377 kts 257°
2026-04-30 05:34 35.03011 138.61160 25927 ft 378 kts 257°
2026-04-30 05:34 35.02404 138.58030 26185 ft 379 kts 257°
2026-04-30 05:34 35.01804 138.54935 26437 ft 381 kts 257°
2026-04-30 05:35 35.01191 138.51785 26700 ft 382 kts 257°
2026-04-30 05:35 35.00576 138.48630 26966 ft 383 kts 257°
2026-04-30 05:35 34.99961 138.45470 27233 ft 384 kts 257°
2026-04-30 05:35 34.99340 138.42290 27481 ft 386 kts 257°
2026-04-30 05:36 34.98717 138.39103 27746 ft 387 kts 256°
2026-04-30 05:36 34.98093 138.35915 28020 ft 388 kts 256°
2026-04-30 05:36 34.97465 138.32714 28301 ft 389 kts 256°
2026-04-30 05:36 34.96834 138.29494 28570 ft 390 kts 256°
2026-04-30 05:37 34.96201 138.26270 28838 ft 391 kts 256°
2026-04-30 05:37 34.95565 138.23041 29076 ft 393 kts 257°
2026-04-30 05:37 34.94923 138.19799 29344 ft 394 kts 256°
2026-04-30 05:37 34.94405 138.16509 29560 ft 397 kts 262°
2026-04-30 05:38 34.94116 138.13154 29808 ft 399 kts 264°
2026-04-30 05:38 34.93887 138.09784 30131 ft 399 kts 264°
2026-04-30 05:38 34.93685 138.06404 30401 ft 401 kts 264°
2026-04-30 05:38 34.93492 138.02999 30696 ft 402 kts 264°
2026-04-30 05:39 34.93300 137.99588 31014 ft 403 kts 264°
2026-04-30 05:39 34.93109 137.96209 31204 ft 407 kts 264°
2026-04-30 05:39 34.92904 137.92705 31418 ft 411 kts 264°
2026-04-30 05:39 34.92700 137.89275 31730 ft 411 kts 264°
2026-04-30 05:40 34.92489 137.85787 32017 ft 413 kts 264°
2026-04-30 05:40 34.92276 137.82294 32321 ft 414 kts 264°
2026-04-30 05:40 34.92064 137.78791 32575 ft 415 kts 264°
2026-04-30 05:40 34.91851 137.75276 32811 ft 416 kts 264°
2026-04-30 05:41 34.91632 137.71744 33079 ft 417 kts 264°
2026-04-30 05:41 34.91241 137.68254 33301 ft 417 kts 258°
2026-04-30 05:41 34.90497 137.64825 33512 ft 419 kts 252°
2026-04-30 05:41 34.89571 137.61455 33763 ft 420 kts 251°
2026-04-30 05:42 34.88592 137.58107 33981 ft 421 kts 251°
2026-04-30 05:42 34.87582 137.54756 34244 ft 421 kts 250°
2026-04-30 05:42 34.86564 137.51420 34599 ft 419 kts 250°
2026-04-30 05:42 34.85565 137.48144 35007 ft 416 kts 250°
2026-04-30 05:43 34.84566 137.44854 35406 ft 414 kts 251°
2026-04-30 05:43 34.83602 137.41554 35817 ft 411 kts 251°
2026-04-30 05:43 34.82671 137.38285 36099 ft 410 kts 251°
2026-04-30 05:43 34.81746 137.35011 36155 ft 405 kts 251°
2026-04-30 05:44 34.79919 137.28558 36156 ft 402 kts 251°
2026-04-30 05:44 34.77816 137.22256 36156 ft 403 kts 244°
2026-04-30 05:45 34.74583 137.16667 36156 ft 408 kts 232°
2026-04-30 05:45 34.70616 137.11682 36156 ft 411 kts 229°
2026-04-30 05:46 34.66516 137.06892 36156 ft 411 kts 229°
2026-04-30 05:46 34.62411 137.02061 36157 ft 411 kts 229°
2026-04-30 05:47 34.58326 136.97191 36155 ft 411 kts 229°
2026-04-30 05:47 34.54253 136.92315 36156 ft 411 kts 229°
2026-04-30 05:48 34.50182 136.87450 36155 ft 411 kts 229°
2026-04-30 05:48 34.46624 136.83204 36156 ft 411 kts 229°
2026-04-30 05:49 34.42540 136.78338 36153 ft 411 kts 229°
2026-04-30 05:49 34.38457 136.73480 36139 ft 411 kts 229°
2026-04-30 05:50 34.34365 136.68620 36121 ft 411 kts 229°
2026-04-30 05:50 34.30274 136.63769 36130 ft 411 kts 229°
2026-04-30 05:51 34.26205 136.58953 36127 ft 412 kts 229°
2026-04-30 05:51 34.22110 136.54110 36122 ft 411 kts 229°
2026-04-30 05:52 34.18013 136.49271 36120 ft 412 kts 229°
2026-04-30 05:52 34.13912 136.44433 36107 ft 412 kts 229°
2026-04-30 05:53 34.09643 136.39786 36110 ft 417 kts 221°
2026-04-30 05:53 34.04643 136.36118 36101 ft 422 kts 214°
2026-04-30 05:54 33.99421 136.32824 36100 ft 424 kts 213°
2026-04-30 05:54 33.94201 136.29604 36100 ft 425 kts 213°
2026-04-30 05:55 33.88941 136.26327 36093 ft 426 kts 214°
2026-04-30 05:55 33.83680 136.23025 36091 ft 426 kts 214°
2026-04-30 05:56 33.78436 136.19731 36090 ft 425 kts 214°
2026-04-30 05:56 33.73178 136.16431 36091 ft 426 kts 214°
2026-04-30 05:57 33.67953 136.13159 36092 ft 426 kts 214°
2026-04-30 05:57 33.62722 136.09844 36083 ft 424 kts 216°
2026-04-30 05:58 33.58044 136.05671 36083 ft 416 kts 226°
2026-04-30 05:58 33.53883 136.00864 36082 ft 415 kts 229°
2026-04-30 05:59 33.49829 135.95932 36082 ft 415 kts 229°
2026-04-30 05:59 33.45762 135.91010 36083 ft 415 kts 229°
2026-04-30 06:00 33.41680 135.86125 36083 ft 415 kts 229°
2026-04-30 06:00 33.37579 135.81238 36082 ft 416 kts 229°
2026-04-30 06:01 33.33500 135.76386 36082 ft 416 kts 229°
2026-04-30 06:01 33.29393 135.71507 36083 ft 417 kts 229°
2026-04-30 06:02 33.25271 135.66617 36081 ft 417 kts 229°
2026-04-30 06:02 33.21148 135.61731 36081 ft 418 kts 229°
2026-04-30 06:03 33.17018 135.56845 36082 ft 418 kts 228°
2026-04-30 06:03 33.12865 135.51949 36076 ft 420 kts 227°
2026-04-30 06:04 33.08708 135.47046 36090 ft 422 kts 227°
2026-04-30 06:05 33.02413 135.39598 36741 ft 427 kts 227°
2026-04-30 06:05 33.00293 135.37113 37084 ft 426 kts 227°
2026-04-30 06:05 32.98183 135.34642 37472 ft 423 kts 227°
2026-04-30 06:05 32.96091 135.32191 37855 ft 420 kts 227°
2026-04-30 06:06 32.94013 135.29755 38207 ft 418 kts 227°
2026-04-30 06:06 32.91951 135.27340 38555 ft 415 kts 227°
2026-04-30 06:06 32.89892 135.24927 38837 ft 414 kts 227°
2026-04-30 06:06 32.87842 135.22526 39101 ft 413 kts 227°
2026-04-30 06:07 32.85797 135.20134 39321 ft 413 kts 227°
2026-04-30 06:07 32.83768 135.17759 39544 ft 413 kts 227°
2026-04-30 06:07 32.81717 135.15360 39729 ft 413 kts 227°
2026-04-30 06:07 32.79669 135.12967 39938 ft 413 kts 228°
2026-04-30 06:08 32.77614 135.10567 40046 ft 415 kts 228°
2026-04-30 06:08 32.73494 135.05763 40070 ft 414 kts 228°
2026-04-30 06:09 32.69372 135.00963 40060 ft 414 kts 228°
2026-04-30 06:09 32.65273 134.96197 40061 ft 415 kts 228°
2026-04-30 06:10 32.61151 134.91409 40057 ft 415 kts 228°
2026-04-30 06:10 32.57014 134.86613 40047 ft 415 kts 228°
2026-04-30 06:11 32.52880 134.81825 40039 ft 415 kts 228°
2026-04-30 06:11 32.48741 134.77038 40038 ft 416 kts 227°
2026-04-30 06:12 32.44619 134.72279 40038 ft 416 kts 227°
2026-04-30 06:12 32.40465 134.67497 40037 ft 416 kts 227°
2026-04-30 06:13 32.36311 134.62709 40036 ft 417 kts 227°
2026-04-30 06:13 32.32150 134.57920 40028 ft 417 kts 227°
2026-04-30 06:14 32.27982 134.53133 40026 ft 418 kts 227°
2026-04-30 06:14 32.24512 134.49153 40027 ft 418 kts 227°
2026-04-30 06:15 32.20331 134.44364 40028 ft 418 kts 227°
2026-04-30 06:15 32.16146 134.39576 40028 ft 419 kts 227°
2026-04-30 06:16 32.11958 134.34791 40018 ft 419 kts 227°
2026-04-30 06:16 32.07769 134.30011 40018 ft 419 kts 227°
2026-04-30 06:17 32.03597 134.25258 40017 ft 419 kts 227°
2026-04-30 06:17 31.99394 134.20476 40018 ft 420 kts 227°
2026-04-30 06:18 31.95188 134.15696 40003 ft 420 kts 227°
2026-04-30 06:18 31.90976 134.10920 39978 ft 420 kts 227°
2026-04-30 06:19 31.86757 134.06142 39991 ft 420 kts 227°
2026-04-30 06:19 31.82543 134.01369 39992 ft 420 kts 227°
2026-04-30 06:20 31.78328 133.96604 39992 ft 420 kts 227°
2026-04-30 06:20 31.74134 133.91868 39991 ft 421 kts 227°
2026-04-30 06:21 31.69904 133.87097 39987 ft 421 kts 227°
2026-04-30 06:21 31.65673 133.82335 39993 ft 421 kts 227°
2026-04-30 06:22 31.61439 133.77577 39982 ft 421 kts 227°
2026-04-30 06:22 31.57204 133.72825 39980 ft 421 kts 227°
2026-04-30 06:23 31.52964 133.68068 39980 ft 422 kts 227°
2026-04-30 06:23 31.48754 133.63350 39956 ft 422 kts 227°
2026-04-30 06:24 31.44510 133.58605 39926 ft 422 kts 227°
2026-04-30 06:24 31.40261 133.53861 39926 ft 422 kts 227°
2026-04-30 06:25 31.36006 133.49116 39915 ft 422 kts 227°
2026-04-30 06:25 31.31755 133.44384 39915 ft 422 kts 227°
2026-04-30 06:26 31.27499 133.39649 39915 ft 422 kts 227°
2026-04-30 06:26 31.23243 133.34918 39917 ft 422 kts 227°
2026-04-30 06:27 31.18981 133.30192 39915 ft 423 kts 227°
2026-04-30 06:27 31.14711 133.25458 39906 ft 423 kts 227°
2026-04-30 06:28 31.10473 133.20764 39906 ft 423 kts 227°
2026-04-30 06:28 31.06208 133.16047 39906 ft 422 kts 227°
2026-04-30 06:29 31.01932 133.11330 39906 ft 423 kts 227°
2026-04-30 06:29 30.97654 133.06616 39906 ft 423 kts 227°
2026-04-30 06:30 30.93371 133.01901 39906 ft 424 kts 227°
2026-04-30 06:30 30.89085 132.97188 39906 ft 424 kts 227°
2026-04-30 06:31 30.84789 132.92473 39906 ft 424 kts 227°
2026-04-30 06:31 30.80526 132.87795 39897 ft 424 kts 227°
2026-04-30 06:32 30.76237 132.83097 39897 ft 424 kts 227°
2026-04-30 06:32 30.71944 132.78401 39897 ft 424 kts 227°
2026-04-30 06:33 30.67647 132.73708 39897 ft 424 kts 227°
2026-04-30 06:33 30.63337 132.69006 39898 ft 425 kts 227°
2026-04-30 06:34 30.59024 132.64302 39897 ft 425 kts 227°
2026-04-30 06:34 30.54715 132.59606 39898 ft 425 kts 227°
2026-04-30 06:35 30.50724 132.54587 39906 ft 422 kts 232°
2026-04-30 06:35 30.46946 132.49373 39906 ft 422 kts 233°
2026-04-30 06:36 30.43202 132.44132 39901 ft 423 kts 233°
2026-04-30 06:36 30.39451 132.38920 39897 ft 423 kts 233°
2026-04-30 06:37 30.35661 132.33694 39897 ft 423 kts 232°
2026-04-30 06:37 30.31871 132.28482 39897 ft 423 kts 233°
2026-04-30 06:38 30.28077 132.23268 39897 ft 423 kts 233°
2026-04-30 06:38 30.24278 132.18053 39897 ft 424 kts 233°
2026-04-30 06:39 30.20495 132.12863 39897 ft 424 kts 232°
2026-04-30 06:39 30.16679 132.07643 39889 ft 424 kts 232°
2026-04-30 06:40 30.12865 132.02426 39888 ft 424 kts 232°
2026-04-30 06:40 30.09054 131.97216 39888 ft 425 kts 232°
2026-04-30 06:41 30.05235 131.92006 39887 ft 424 kts 232°
2026-04-30 06:41 30.01435 131.86831 39888 ft 425 kts 232°
2026-04-30 06:42 29.97611 131.81630 39888 ft 425 kts 232°
2026-04-30 06:42 29.93783 131.76432 39888 ft 425 kts 232°
2026-04-30 06:43 29.89955 131.71237 39888 ft 425 kts 232°
2026-04-30 06:43 29.86152 131.66081 39888 ft 425 kts 232°
2026-04-30 06:44 29.82321 131.60897 39893 ft 425 kts 232°
2026-04-30 06:44 29.78485 131.55715 39897 ft 425 kts 232°
2026-04-30 06:45 29.74650 131.50540 39897 ft 424 kts 232°
2026-04-30 06:45 29.70812 131.45367 39897 ft 425 kts 232°
2026-04-30 06:46 29.66967 131.40190 39890 ft 425 kts 232°
2026-04-30 06:46 29.63143 131.35048 39888 ft 426 kts 232°
2026-04-30 06:47 29.59290 131.29874 39892 ft 426 kts 232°
2026-04-30 06:47 29.55438 131.24709 39897 ft 426 kts 232°
2026-04-30 06:48 29.51581 131.19540 39898 ft 426 kts 232°
2026-04-30 06:48 29.47727 131.14387 39897 ft 425 kts 232°
2026-04-30 06:49 29.43871 131.09240 39896 ft 425 kts 232°
2026-04-30 06:49 29.40022 131.04103 39897 ft 425 kts 232°
2026-04-30 06:50 29.36170 130.98969 39897 ft 425 kts 232°
2026-04-30 06:50 29.32317 130.93842 39897 ft 425 kts 232°
2026-04-30 06:51 29.28456 130.88709 39897 ft 425 kts 232°
2026-04-30 06:51 29.24596 130.83585 39897 ft 425 kts 231°
2026-04-30 06:52 29.20741 130.78474 39897 ft 424 kts 231°
2026-04-30 06:52 29.16876 130.73353 39906 ft 424 kts 231°
2026-04-30 06:53 29.13012 130.68244 39906 ft 424 kts 231°
2026-04-30 06:53 29.09167 130.63170 39907 ft 425 kts 231°
2026-04-30 06:54 29.05294 130.58060 39906 ft 425 kts 231°
2026-04-30 06:54 29.01422 130.52959 39906 ft 424 kts 231°
2026-04-30 06:55 28.97545 130.47858 39906 ft 425 kts 231°
2026-04-30 06:55 28.93661 130.42751 39907 ft 425 kts 231°
2026-04-30 06:56 28.89775 130.37654 39906 ft 426 kts 231°
2026-04-30 06:56 28.85912 130.32589 39906 ft 426 kts 231°
2026-04-30 06:57 28.82012 130.27480 39906 ft 426 kts 231°
2026-04-30 06:57 28.78111 130.22378 39906 ft 427 kts 231°
2026-04-30 06:58 28.74205 130.17275 39906 ft 427 kts 231°
2026-04-30 06:58 28.70292 130.12171 39915 ft 428 kts 231°
2026-04-30 06:59 28.66377 130.07071 39917 ft 428 kts 231°
2026-04-30 06:59 28.62478 130.01997 39915 ft 428 kts 231°
2026-04-30 07:00 28.58560 129.96902 39915 ft 428 kts 231°
2026-04-30 07:00 28.54638 129.91812 39915 ft 427 kts 231°
2026-04-30 07:01 28.50728 129.86742 39897 ft 427 kts 231°
2026-04-30 07:01 28.46808 129.81664 39892 ft 427 kts 231°
2026-04-30 07:02 28.42880 129.76583 39888 ft 428 kts 231°
2026-04-30 07:02 28.39606 129.72356 39888 ft 428 kts 231°
2026-04-30 07:03 28.35668 129.67277 39887 ft 428 kts 231°
2026-04-30 07:03 28.31728 129.62200 39888 ft 428 kts 231°
2026-04-30 07:04 28.27812 129.57160 39888 ft 428 kts 231°
2026-04-30 07:04 28.23877 129.52099 39888 ft 428 kts 231°
2026-04-30 07:05 28.17963 129.44507 39888 ft 428 kts 231°
2026-04-30 07:05 28.14020 129.39452 39888 ft 427 kts 231°
2026-04-30 07:06 28.10081 129.34409 39895 ft 427 kts 231°
2026-04-30 07:06 28.06141 129.29371 39896 ft 427 kts 231°
2026-04-30 07:07 28.02227 129.24372 39903 ft 426 kts 231°
2026-04-30 07:07 27.98285 129.19343 39905 ft 427 kts 231°
2026-04-30 07:08 27.94328 129.14300 39909 ft 430 kts 231°
2026-04-30 07:08 27.90344 129.09230 39916 ft 431 kts 231°
2026-04-30 07:09 27.86358 129.04164 39923 ft 430 kts 231°
2026-04-30 07:09 27.82377 128.99115 39927 ft 430 kts 231°
2026-04-30 07:10 27.78710 128.94461 39925 ft 430 kts 231°
2026-04-30 07:10 27.74726 128.89411 39934 ft 430 kts 231°
2026-04-30 07:11 27.72734 128.86889 39811 ft 430 kts 231°
2026-04-30 07:11 27.70746 128.84375 39570 ft 429 kts 231°
2026-04-30 07:11 27.68759 128.81864 39233 ft 427 kts 231°
2026-04-30 07:11 27.66787 128.79371 38702 ft 425 kts 231°
2026-04-30 07:12 27.64815 128.76880 38092 ft 425 kts 231°
2026-04-30 07:12 27.62844 128.74392 37461 ft 426 kts 230°
2026-04-30 07:12 27.60868 128.71901 36796 ft 426 kts 230°
2026-04-30 07:12 27.58888 128.69407 36133 ft 426 kts 230°
2026-04-30 07:13 27.56911 128.66916 35458 ft 427 kts 230°
2026-04-30 07:13 27.54927 128.64417 34757 ft 428 kts 230°
2026-04-30 07:13 27.52935 128.61909 34017 ft 430 kts 230°
2026-04-30 07:13 27.50933 128.59391 33215 ft 433 kts 230°
2026-04-30 07:14 27.48915 128.56851 32391 ft 436 kts 230°
2026-04-30 07:14 27.46898 128.54317 31794 ft 433 kts 230°
2026-04-30 07:14 27.44896 128.51807 31228 ft 430 kts 230°
2026-04-30 07:14 27.42926 128.49339 30656 ft 427 kts 230°
2026-04-30 07:15 27.40945 128.46857 30073 ft 424 kts 229°
2026-04-30 07:15 27.38980 128.44398 29500 ft 422 kts 229°
2026-04-30 07:15 27.37024 128.41951 28930 ft 419 kts 229°
2026-04-30 07:15 27.35084 128.39524 28365 ft 416 kts 229°
2026-04-30 07:16 27.33161 128.37118 27803 ft 413 kts 229°
2026-04-30 07:16 27.31246 128.34723 27247 ft 410 kts 229°
2026-04-30 07:16 27.29349 128.32350 26677 ft 407 kts 229°
2026-04-30 07:16 27.27459 128.29990 26127 ft 404 kts 229°
2026-04-30 07:17 27.25589 128.27655 25572 ft 401 kts 229°
2026-04-30 07:17 27.23727 128.25333 25016 ft 398 kts 229°
2026-04-30 07:17 27.20039 128.20737 23901 ft 393 kts 229°
2026-04-30 07:18 27.18175 128.18507 23486 ft 387 kts 225°
2026-04-30 07:18 27.16089 128.16574 22599 ft 394 kts 216°
2026-04-30 07:18 27.13654 128.15126 21901 ft 398 kts 206°
2026-04-30 07:18 27.11070 128.14047 21405 ft 394 kts 202°
2026-04-30 07:19 27.08468 128.13150 21017 ft 390 kts 200°
2026-04-30 07:19 27.05857 128.12286 20640 ft 392 kts 200°
2026-04-30 07:19 27.03246 128.11402 20264 ft 391 kts 201°
2026-04-30 07:19 27.00657 128.10490 19891 ft 388 kts 202°
2026-04-30 07:20 26.98121 128.09568 19506 ft 387 kts 202°
2026-04-30 07:20 26.95578 128.08620 19127 ft 384 kts 202°
2026-04-30 07:20 26.93045 128.07669 18752 ft 382 kts 203°
2026-04-30 07:20 26.90535 128.06719 18378 ft 380 kts 203°
2026-04-30 07:21 26.88043 128.05771 18005 ft 378 kts 203°
2026-04-30 07:21 26.85554 128.04825 17639 ft 376 kts 203°
2026-04-30 07:21 26.83082 128.03887 17277 ft 374 kts 203°
2026-04-30 07:21 26.80623 128.02958 16911 ft 371 kts 203°
2026-04-30 07:22 26.75760 128.01126 16197 ft 367 kts 203°
2026-04-30 07:22 26.73353 128.00217 15841 ft 364 kts 203°
2026-04-30 07:22 26.70954 127.99310 15480 ft 362 kts 203°
2026-04-30 07:23 26.68584 127.98420 15123 ft 358 kts 203°
2026-04-30 07:23 26.66222 127.97532 14770 ft 356 kts 203°
2026-04-30 07:23 26.63882 127.96653 14426 ft 354 kts 202°
2026-04-30 07:23 26.61557 127.95781 14081 ft 351 kts 202°
2026-04-30 07:24 26.59246 127.94914 13738 ft 348 kts 202°
2026-04-30 07:24 26.56960 127.94056 13431 ft 346 kts 202°
2026-04-30 07:24 26.54698 127.93209 13169 ft 333 kts 202°
2026-04-30 07:24 26.52616 127.92439 12802 ft 305 kts 202°
2026-04-30 07:25 26.50679 127.91725 12481 ft 281 kts 203°
2026-04-30 07:25 26.48856 127.91049 12241 ft 273 kts 203°
2026-04-30 07:25 26.47062 127.90373 11985 ft 272 kts 203°
2026-04-30 07:25 26.45273 127.89695 11703 ft 271 kts 203°
2026-04-30 07:26 26.43493 127.89019 11492 ft 269 kts 203°
2026-04-30 07:26 26.41714 127.88346 11284 ft 269 kts 202°
2026-04-30 07:26 26.39941 127.87681 11020 ft 269 kts 202°
2026-04-30 07:26 26.38166 127.87013 10559 ft 270 kts 202°
2026-04-30 07:27 26.36386 127.86345 10124 ft 269 kts 202°
2026-04-30 07:27 26.34616 127.85681 9751 ft 268 kts 202°
2026-04-30 07:27 26.32857 127.85024 9386 ft 267 kts 202°
2026-04-30 07:27 26.31096 127.84364 9011 ft 267 kts 201°
2026-04-30 07:28 26.29336 127.83708 8646 ft 267 kts 201°
2026-04-30 07:28 26.27579 127.83053 8285 ft 266 kts 201°
2026-04-30 07:28 26.25823 127.82398 7925 ft 265 kts 201°
2026-04-30 07:28 26.24082 127.81749 7558 ft 263 kts 201°
2026-04-30 07:29 26.22348 127.81103 7197 ft 261 kts 201°
2026-04-30 07:29 26.20630 127.80462 6839 ft 260 kts 202°
2026-04-30 07:29 26.18912 127.79823 6464 ft 259 kts 201°
2026-04-30 07:29 26.17199 127.79186 6099 ft 257 kts 202°
2026-04-30 07:30 26.13833 127.77933 5413 ft 254 kts 202°
2026-04-30 07:30 26.12173 127.77318 5141 ft 244 kts 202°
2026-04-30 07:30 26.10628 127.76744 4858 ft 225 kts 202°
2026-04-30 07:31 26.09193 127.76214 4555 ft 210 kts 202°
2026-04-30 07:31 26.07850 127.75712 4178 ft 202 kts 202°
2026-04-30 07:31 26.06594 127.75043 3890 ft 199 kts 216°
2026-04-30 07:31 26.05622 127.73980 3611 ft 196 kts 235°
2026-04-30 07:32 26.05075 127.72611 3396 ft 194 kts 254°
2026-04-30 07:32 26.04917 127.71122 3160 ft 194 kts 263°
2026-04-30 07:32 26.04874 127.69639 2935 ft 187 kts 264°
2026-04-30 07:32 26.04837 127.68223 2757 ft 179 kts 264°
2026-04-30 07:33 26.04799 127.66860 2531 ft 174 kts 266°
2026-04-30 07:33 26.04985 127.65537 2271 ft 175 kts 288°
2026-04-30 07:33 26.05758 127.64486 2158 ft 183 kts 327°
2026-04-30 07:33 26.06942 127.63948 2076 ft 185 kts 337°
2026-04-30 07:34 26.08233 127.63782 1931 ft 189 kts 357°
2026-04-30 07:34 26.09533 127.63785 1689 ft 183 kts 354°
2026-04-30 07:34 26.10764 127.63681 1429 ft 172 kts 354°
2026-04-30 07:34 26.11918 127.63639 1206 ft 162 kts 354°
2026-04-30 07:35 26.13017 127.63588 1000 ft 153 kts 355°
2026-04-30 07:35 26.14048 127.63535 795 ft 144 kts 355°
2026-04-30 07:35 26.15023 127.63490 619 ft 136 kts 356°
2026-04-30 07:35 26.15956 127.63445 424 ft 132 kts 356°
2026-04-30 07:36 26.16874 127.63408 257 ft 132 kts 355°
2026-04-30 07:36 26.17790 127.63365 90 ft 131 kts 355°
2026-04-30 07:36 26.18659 127.63316 22 ft 106 kts 356°
2026-04-30 07:36 26.19216 127.63291 22 ft 55 kts 358°
2026-04-30 07:37 26.19496 127.63279 24 ft 29 kts 358°
2026-04-30 07:37 26.19634 127.63295 29 ft 16 kts 15°
2026-04-30 07:37 26.19744 127.63341 29 ft 17 kts 26°
2026-04-30 07:37 26.19855 127.63405 27 ft 19 kts 27°
2026-04-30 07:38 26.19944 127.63445 27 ft 13 kts
2026-04-30 07:38 26.20041 127.63443 24 ft 15 kts 358°
2026-04-30 07:38 26.20155 127.63439 25 ft 17 kts 358°
2026-04-30 07:38 26.20250 127.63434 28 ft 9 kts 358°
2026-04-30 07:39 26.20296 127.63472 23 ft 9 kts 69°
2026-04-30 07:39 26.20303 127.63558 23 ft 14 kts 88°
2026-04-30 07:39 26.20309 127.63700 23 ft 20 kts 87°
2026-04-30 07:39 26.20315 127.63868 26 ft 23 kts 87°
2026-04-30 07:40 26.20322 127.64054 26 ft 25 kts 88°
2026-04-30 07:40 26.20330 127.64256 26 ft 27 kts 87°
2026-04-30 07:40 26.20339 127.64471 25 ft 25 kts 87°
2026-04-30 07:40 26.20345 127.64631 23 ft 20 kts 88°
2026-04-30 07:41 26.20349 127.64748 27 ft 14 kts 87°
2026-04-30 07:41 26.20353 127.64852 26 ft 8 kts 87°
2026-04-30 07:41 26.20370 127.64893 27 ft 6 kts 43°
2026-04-30 07:41 26.20409 127.64920 27 ft 6 kts 28°
2026-04-30 07:42 26.20432 127.64933 28 ft 3 kts 27°
2026-04-30 07:42 26.20433 127.64934 28 ft 0 kts 27°